STARLINK-34289 (64225 NORAD) Tracking and Keplerian Element Data

This shows tracking and keplerian element data for the satellite.

Feedback or suggestion? Click here.




ElementValue
Catalog64225
NameSTARLINK-34289
Epoch Orbit3238
Epoch Day354.18994859
Epoch Year2025
RAAN48.8914
Inclination53.1593
Eccentricity0.0001454
Argument of Perigee82.8673
Mean Anonmoly277.2493
Mean Motion15.30199288
Decay Rate0.00020537
L11 64225U 25117Y 25354.18994859 .00020537 00000+0 70362-3 0 9994
L22 64225 53.1593 48.8914 0001454 82.8673 277.2493 15.30199288 32385



Live tracking and technical data element details for STARLINK-34289 (NORAD 64225). STARLINK-34289 can be tracked NOW for your location showing map with azimuth and elevation plus other details from your city location.







IsCatalogInMostPopularTable: catalog: 64225, numindb: 2
Update: records affected: 1



GetName: 64225 STARLINK-34289

Hit Count: updated at: Mon, 09 Feb 2026 08:13:00 GMT